QPF
0.00 0.00 0.00 0.00 0.00 0.00 0.00 0.00 0.00 0.00 0.00 0.00 0.00 0.00 0.00 0.00 0.00 0.00 0.00 0.00 0.00 0.00 0.00 0.00 0.00 0.00 0.00 0.00 0.00 0.00 0.00 0.00 0.00 0.00 0.00 0.00 0.00 0.00 0.00 0.00 0.00 0.00 0.00 0.00 0.00
0.00 0.00 0.00 0.00 0.00 0.00 0.00 0.00 0.00 0.00 0.00 0.00 0.00 0.00 0.00 0.00 0.00 0.00 0.00 0.00 0.00 0.00 0.00 0.00 0.00 0.00 0.00 0.00 0.00 0.00 0.00 0.00 0.00 0.00 0.00 0.00 0.00 0.00 0.00 0.00 0.00 0.00 0.00 0.00 0.00
0.00 0.00 0.00 0.00 0.00 0.00 0.00 0.00 0.00 0.00 0.00 0.00 0.00 0.00 0.00 0.00 0.00 0.00 0.00 0.00 0.00 0.00 0.00 0.00 0.00 0.00 0.00 0.00 0.00 0.00 0.00 0.00 0.00 0.00 0.00 0.00 0.00 0.00 0.00 0.00 0.00 0.00 0.00 0.00 0.00
0.00 0.00 0.00 0.00 0.00 0.00 0.00 0.00 0.00 0.00 0.00 0.00 0.00 0.00 0.00 0.00 0.00 0.00 0.00 0.00 0.00 0.00 0.00 0.00 0.00 0.00 0.00 0.00 0.00 0.00 0.00 0.00 0.00 0.00 0.00 0.00 0.00 0.00 0.00 0.00 0.00 0.00 0.00 0.00 0.00
0.00 0.00 0.00 0.00 0.00 0.00 0.00 0.00 0.00 0.00 0.00 0.00 0.00 0.00 0.00 0.00 0.00 0.00 0.00 0.00 0.00 0.00 0.00 0.00 0.00 0.00 0.00 0.00 0.00 0.00 0.00 0.00 0.00 0.00 0.00 0.00 0.00 0.00 0.00 0.00 0.00 0.00 0.00 0.00 0.00
0.00 0.00 0.00 0.00 0.00 0.00 0.00 0.00 0.00 0.00 0.00 0.00 0.00 0.00 0.00 0.00 0.00 0.00 0.00 0.00 0.00 0.00 0.00 0.00 0.00 0.00 0.00 0.00 0.00 0.00 0.00 0.00 0.00 0.00 0.00 0.00 0.00 0.00 0.00 0.00 0.00 0.00 0.00 0.00 0.00
0.00 0.00 0.00 0.00 0.00 0.00 0.00 0.00 0.00 0.00 0.00 0.00 0.00 0.00 0.00 0.00 0.00 0.00 0.00 0.00 0.00 0.00 0.00 0.00 0.00 0.00 0.00 0.00 0.00 0.00 0.00 0.00 0.00 0.00 0.00 0.00 0.00 0.00 0.00 0.00 0.00 0.00 0.00 0.00 0.00
0.00 0.00 0.00 0.00 0.00 0.00 0.00 0.00 0.00 0.00 0.00 0.00 0.00 0.00 0.00 0.00 0.00 0.00 0.00 0.00 0.00 0.00 0.00 0.00 0.00 0.00 0.00 0.00 0.00 0.00 0.00 0.00 0.00 0.00 0.00 0.00 0.00 0.00 0.00 0.00 0.00 0.00 0.00 0.00 0.00
0.00 0.00 0.00 0.00 0.00 0.00 0.00 0.00 0.00 0.00 0.00 0.00 0.00 0.00 0.00 0.00 0.00 0.00 0.00 0.00 0.00 0.00 0.00 0.00 0.00 0.00 0.00 0.00 0.00 0.00 0.00 0.00 0.00 0.00 0.00 0.00 0.00 0.00 0.00 0.00 0.00 0.00 0.00 0.00 0.00
0.00 0.00 0.00 0.00 0.00 0.00 0.00 0.00 0.00 0.00 0.00 0.00 0.00 0.00 0.00 0.00 0.00 0.00 0.00 0.00 0.00 0.00 0.00 0.00 0.00 0.00 0.00 0.00 0.00 0.00 0.00 0.00 0.00 0.00 0.00 0.00 0.00 0.00 0.00 0.00 0.00 0.00 0.00 0.00 0.00
0.00 0.00 0.00 0.00 0.00 0.00 0.00 0.00 0.00 0.00 0.00 0.00 0.00 0.00 0.00 0.00 0.00 0.00 0.00 0.00 0.00 0.00 0.00 0.00 0.00 0.00 0.00 0.00 0.00 0.00 0.00 0.00 0.00 0.00 0.00 0.00 0.00 0.00 0.00 0.00 0.00 0.00 0.00 0.00 0.00
0.00 0.00 0.00 0.00 0.00 0.00 0.00 0.00 0.00 0.00 0.00 0.00 0.00 0.00 0.00 0.00 0.00 0.00 0.00 0.00 0.00 0.00 0.00 0.00 0.00 0.00 0.00 0.00 0.00 0.00 0.00 0.00 0.00 0.00 0.00 0.00 0.00 0.00 0.00 0.00 0.00 0.00 0.00 0.00 0.00
0.00 0.00 0.00 0.00 0.00 0.00 0.00 0.00 0.00 0.00 0.00 0.00 0.00 0.00 0.00 0.00 0.00 0.00 0.00 0.00 0.00 0.00 0.00 0.00 0.00 0.00 0.00 0.00 0.00 0.00 0.00 0.00 0.00 0.00 0.00 0.00 0.00 0.00 0.00 0.00 0.00 0.00 0.00 0.00 0.00
0.00 0.00 0.00 0.00 0.00 0.00 0.00 0.00 0.00 0.00 0.00 0.00 0.00 0.00 0.00 0.00 0.00 0.00 0.00 0.00 0.00 0.00 0.00 0.00 0.00 0.00 0.00 0.00 0.00 0.00 0.00 0.00 0.00 0.00 0.00 0.00 0.00 0.00 0.00 0.00 0.00 0.00 0.00 0.00 0.00
0.00 0.00 0.00 0.00 0.00 0.00 0.00 0.00 0.00 0.00 0.00 0.00 0.00 0.00 0.00 0.00 0.00 0.00 0.00 0.00 0.00 0.00 0.00 0.00 0.00 0.00 0.00 0.00 0.00 0.00 0.00 0.00 0.00 0.00 0.00 0.00 0.00 0.00 0.00 0.00 0.00 0.00 0.00 0.00 0.00
0.00 0.00 0.00 0.00 0.00 0.00 0.00 0.00 0.00 0.00 0.00 0.00 0.00 0.00 0.00 0.00 0.00 0.00 0.00 0.00 0.00 0.00 0.00 0.00 0.00 0.00 0.00 0.00 0.00 0.00 0.00 0.00 0.00 0.00 0.00 0.00 0.00 0.00 0.00 0.00 0.00 0.00 0.00 0.00 0.00
0.00 0.00 0.00 0.00 0.00 0.00 0.00 0.00 0.00 0.00 0.00 0.00 0.00 0.00 0.00 0.00 0.00 0.00 0.00 0.00 0.00 0.00 0.00 0.00 0.00 0.00 0.00 0.00 0.00 0.00 0.00 0.00 0.00 0.00 0.00 0.00 0.00 0.00 0.00 0.00 0.00 0.00 0.00 0.00 0.00
0.00 0.00 0.00 0.00 0.00 0.00 0.00 0.00 0.00 0.00 0.00 0.00 0.00 0.00 0.00 0.00 0.00 0.00 0.00 0.00 0.00 0.00 0.00 0.00 0.00 0.00 0.00 0.00 0.00 0.00 0.00 0.00 0.00 0.00 0.00 0.00 0.00 0.00 0.00 0.00 0.00 0.00 0.00 0.00 0.00
0.00 0.00 0.00 0.00 0.00 0.00 0.00 0.00 0.00 0.00 0.00 0.00 0.00 0.00 0.00 0.00 0.00 0.00 0.00 0.00 0.00 0.00 0.00 0.00 0.00 0.00 0.00 0.00 0.00 0.00 0.00 0.00 0.00 0.00 0.00 0.00 0.00 0.00 0.00 0.00 0.00 0.00 0.00 0.00 0.00
0.00 0.00 0.00 0.00 0.00 0.00 0.00 0.00 0.00 0.00 0.00 0.00 0.00 0.00 0.00 0.00 0.00 0.00 0.00 0.00 0.00 0.00 0.00 0.00 0.00 0.00 0.00 0.00 0.00 0.00 0.00 0.00 0.00 0.00 0.00 0.00 0.00 0.00 0.00 0.00 0.00 0.00 0.00 0.00 0.00
0.00 0.00 0.00 0.00 0.00 0.00 0.00 0.00 0.00 0.00 0.00 0.00 0.00 0.00 0.00 0.00 0.00 0.00 0.00 0.00 0.00 0.00 0.00 0.00 0.00 0.00 0.00 0.00 0.00 0.00 0.00 0.00 0.00 0.00 0.00 0.00 0.00 0.00 0.00 0.00 0.00 0.00 0.00 0.00 0.00
0.00 0.00 0.00 0.00 0.00 0.00 0.00 0.00 0.00 0.00 0.00 0.00 0.00 0.00 0.00 0.00 0.00 0.00 0.00 0.00 0.00 0.00 0.00 0.00 0.00 0.00 0.00 0.00 0.00 0.00 0.00 0.00 0.00 0.00 0.00 0.00 0.00 0.00 0.00 0.00 0.00 0.00 0.00 0.00 0.00
0.00 0.00 0.00 0.00 0.00 0.00 0.00 0.00 0.00 0.00 0.00 0.00 0.00 0.00 0.00 0.00 0.00 0.00 0.00 0.00 0.00 0.00 0.00 0.00 0.00 0.00 0.00 0.00 0.00 0.00 0.00 0.00 0.00 0.00 0.00 0.00 0.00 0.00 0.00 0.00 0.00 0.00 0.00 0.00 0.00
0.00 0.00 0.00 0.00 0.00 0.00 0.00 0.00 0.00 0.00 0.00 0.00 0.00 0.00 0.00 0.00 0.00 0.00 0.00 0.00 0.00 0.00 0.00 0.00 0.00 0.00 0.00 0.00 0.00 0.00 0.00 0.00 0.00 0.00 0.00 0.00 0.00 0.00 0.00 0.00 0.00 0.00 0.00 0.00 0.00
0.00 0.00 0.00 0.00 0.00 0.00 0.00 0.00 0.00 0.00 0.00 0.00 0.00 0.00 0.00 0.00 0.00 0.00 0.00 0.00 0.00 0.00 0.00 0.00 0.00 0.00 0.00 0.00 0.00 0.00 0.00 0.00 0.00 0.00 0.00 0.00 0.00 0.00 0.00 0.00 0.00 0.00 0.00 0.00 0.00
0.00 0.00 0.00 0.00 0.00 0.00 0.00 0.00 0.00 0.00 0.00 0.00 0.00 0.00 0.00 0.00 0.00 0.00 0.00 0.00 0.00 0.00 0.00 0.00 0.00 0.00 0.00 0.00 0.00 0.00 0.00 0.00 0.00 0.00 0.00 0.00 0.00 0.00 0.00 0.00 0.00 0.00 0.00 0.00 0.00
0.00 0.00 0.00 0.00 0.00 0.00 0.00 0.00 0.00 0.00 0.00 0.00 0.00 0.00 0.00 0.00 0.00 0.00 0.00 0.00 0.00 0.00 0.00 0.00 0.00 0.00 0.00 0.00 0.00 0.00 0.00 0.00 0.00 0.00 0.00 0.00 0.00 0.00 0.00 0.00 0.00 0.00 0.00 0.00 0.00
MSLP
1018.58 1018.11 1017.74 1017.43 1017.10 1016.86 1016.74 1016.73 1016.68 1016.65 1016.58 1016.53 1016.47 1016.37 1016.28 1016.10 1015.90 1015.35 1013.21 1012.39 1012.30 1012.90 1013.05 1012.28 1011.90 1011.42 1011.02 1010.13 1010.00 1009.41 1007.40 1005.82 1006.22 1006.20 1006.20 1006.34 1006.16 1006.18 1006.55 1006.03 1006.40 1006.53 1006.76 1007.97 1008.76
1018.51 1018.04 1017.60 1017.25 1016.96 1016.72 1016.61 1016.58 1016.55 1016.49 1016.40 1016.37 1016.28 1016.19 1016.10 1015.99 1014.82 1013.16 1012.12 1012.43 1012.71 1012.85 1012.24 1011.43 1010.96 1010.89 1009.99 1009.59 1009.37 1008.56 1007.18 1006.29 1007.28 1007.23 1006.78 1006.65 1006.67 1006.48 1006.19 1006.07 1006.14 1006.77 1007.79 1008.53 1009.09
1018.55 1018.02 1017.57 1017.23 1016.96 1016.73 1016.56 1016.50 1016.43 1016.30 1016.20 1016.16 1016.12 1016.07 1016.00 1015.65 1013.72 1011.12 1011.90 1012.47 1012.73 1012.63 1011.34 1010.95 1010.59 1010.27 1009.44 1009.20 1008.96 1008.34 1007.20 1007.90 1007.92 1007.93 1007.65 1007.08 1006.74 1006.85 1006.21 1005.71 1006.16 1006.41 1006.94 1008.32 1008.95
1018.56 1018.05 1017.60 1017.21 1016.89 1016.59 1016.35 1016.21 1016.19 1016.15 1016.07 1015.97 1015.93 1015.91 1015.85 1014.96 1011.73 1011.26 1012.13 1012.45 1012.73 1011.91 1011.28 1010.88 1010.46 1009.76 1008.92 1008.65 1008.82 1008.17 1008.52 1008.27 1007.92 1008.15 1007.85 1007.27 1007.26 1006.69 1006.63 1006.37 1007.04 1007.08 1007.35 1008.02 1008.46
1018.48 1017.92 1017.41 1016.98 1016.64 1016.37 1016.17 1015.96 1015.87 1015.94 1015.91 1015.84 1015.90 1015.88 1015.70 1013.28 1010.61 1011.17 1012.13 1012.55 1012.27 1011.62 1010.76 1010.26 1009.76 1009.11 1008.53 1008.52 1008.84 1008.32 1008.34 1008.45 1008.21 1008.01 1007.83 1007.75 1007.20 1006.93 1007.09 1007.76 1007.40 1007.29 1007.85 1008.09 1008.34
1018.47 1017.93 1017.40 1016.88 1016.47 1016.19 1015.98 1015.79 1015.68 1015.71 1015.79 1015.81 1015.82 1015.81 1014.45 1011.68 1010.81 1011.27 1011.44 1011.93 1011.35 1011.05 1010.53 1009.94 1009.32 1009.16 1008.71 1008.56 1008.43 1008.49 1008.39 1008.09 1007.90 1007.62 1007.71 1007.54 1007.40 1007.67 1007.93 1008.16 1007.61 1007.71 1007.60 1007.91 1008.31
1018.32 1017.78 1017.24 1016.75 1016.34 1016.03 1015.81 1015.68 1015.55 1015.54 1015.60 1015.65 1015.66 1015.10 1013.17 1010.94 1010.82 1011.17 1011.37 1011.16 1011.13 1010.79 1010.46 1010.35 1009.85 1009.42 1008.90 1008.78 1008.98 1008.61 1008.14 1007.69 1007.63 1007.53 1007.41 1007.72 1007.43 1008.01 1008.74 1008.29 1008.07 1008.04 1008.08 1007.96 1008.20
1018.05 1017.57 1017.02 1016.50 1016.13 1015.86 1015.60 1015.44 1015.22 1015.30 1015.41 1015.51 1015.58 1014.41 1011.43 1010.97 1010.93 1011.15 1011.12 1011.19 1011.37 1011.15 1010.54 1010.56 1010.38 1009.44 1008.80 1009.02 1008.76 1008.05 1007.82 1006.65 1007.19 1007.51 1007.69 1007.70 1006.78 1008.51 1009.05 1008.79 1008.58 1008.56 1008.40 1008.41 1008.39
1017.81 1017.29 1016.79 1016.27 1015.88 1015.63 1015.45 1015.33 1015.15 1015.23 1015.32 1015.44 1014.91 1013.39 1010.39 1011.71 1010.89 1010.69 1010.75 1010.59 1011.10 1011.17 1011.01 1010.95 1010.27 1009.27 1009.34 1008.28 1007.71 1007.57 1006.29 1006.50 1007.10 1007.49 1007.55 1007.40 1006.61 1008.66 1009.42 1009.41 1009.34 1009.32 1009.29 1009.35 1009.27
1017.61 1017.02 1016.46 1016.01 1015.61 1015.38 1015.25 1015.29 1015.19 1015.15 1014.96 1014.44 1013.64 1012.68 1010.42 1009.52 1009.97 1010.27 1010.58 1010.58 1010.58 1010.76 1010.80 1010.42 1009.62 1008.90 1008.18 1007.54 1006.09 1006.33 1006.52 1006.87 1006.52 1007.24 1007.53 1007.18 1007.18 1008.84 1009.68 1009.87 1010.16 1010.45 1010.60 1010.78 1011.18
1017.31 1016.68 1016.10 1015.61 1015.27 1015.17 1014.91 1014.70 1014.62 1013.61 1012.79 1010.89 1010.25 1009.83 1009.36 1009.59 1009.87 1009.94 1010.25 1010.28 1010.19 1010.18 1009.36 1009.54 1008.70 1007.63 1007.25 1007.40 1007.42 1007.34 1007.17 1006.88 1006.99 1007.46 1007.68 1006.95 1007.40 1008.73 1009.83 1010.36 1010.92 1011.53 1012.16 1012.26 1012.53
1016.91 1016.26 1015.63 1015.11 1014.79 1014.82 1014.50 1012.13 1012.32 1012.15 1010.70 1009.54 1009.52 1009.27 1009.38 1009.20 1008.88 1009.32 1009.73 1009.35 1009.36 1008.80 1008.72 1009.13 1007.91 1007.15 1007.89 1008.20 1008.03 1007.73 1007.32 1007.02 1007.18 1007.70 1007.89 1007.01 1007.45 1008.86 1009.78 1010.90 1011.95 1012.71 1013.26 1013.91 1014.28
1016.74 1015.95 1015.32 1014.79 1014.54 1014.55 1012.61 1012.37 1012.21 1011.93 1010.29 1008.76 1008.74 1008.44 1008.35 1008.94 1008.03 1008.27 1009.03 1008.52 1008.36 1008.03 1008.04 1007.37 1006.86 1007.56 1008.08 1008.11 1007.92 1007.53 1007.14 1006.91 1007.00 1007.41 1007.64 1007.39 1007.09 1008.33 1009.70 1010.91 1012.31 1013.51 1014.22 1014.89 1015.31
1016.62 1015.75 1015.06 1014.67 1014.91 1012.72 1012.05 1012.35 1011.97 1011.88 1009.67 1008.08 1007.92 1007.61 1008.02 1007.79 1007.71 1007.40 1008.09 1007.92 1007.87 1007.33 1007.33 1007.17 1007.05 1007.73 1007.68 1007.43 1007.71 1006.88 1007.46 1007.39 1007.40 1007.36 1006.27 1006.86 1005.78 1006.64 1008.21 1009.74 1011.62 1013.21 1014.23 1014.92 1015.43
1016.34 1015.63 1015.00 1014.53 1013.21 1012.08 1012.59 1012.13 1011.78 1011.61 1008.35 1007.42 1007.48 1007.75 1007.41 1006.98 1006.61 1007.08 1007.44 1007.58 1006.98 1007.09 1007.54 1006.25 1006.79 1007.27 1007.11 1006.96 1007.39 1006.83 1007.22 1007.43 1007.35 1007.10 1006.78 1006.24 1006.34 1005.52 1007.21 1008.49 1010.47 1012.56 1013.84 1014.72 1015.26
1016.29 1015.43 1014.95 1013.88 1012.92 1012.55 1012.30 1012.09 1011.76 1010.17 1007.50 1006.80 1007.18 1007.24 1007.27 1006.89 1006.38 1007.11 1007.35 1007.49 1007.02 1006.79 1007.10 1006.17 1006.80 1006.65 1006.23 1006.62 1007.05 1007.00 1007.51 1007.52 1007.39 1006.87 1005.82 1005.82 1005.52 1004.90 1005.53 1007.07 1009.31 1012.12 1013.38 1014.37 1014.92
1016.40 1015.57 1014.52 1013.58 1012.92 1012.62 1012.26 1011.23 1010.06 1008.56 1007.78 1007.40 1007.22 1007.10 1006.70 1006.34 1006.31 1006.38 1006.58 1006.75 1006.35 1006.52 1005.98 1006.13 1006.10 1006.43 1006.63 1006.49 1006.94 1007.18 1006.83 1006.23 1005.88 1005.43 1004.75 1005.03 1005.03 1004.89 1006.16 1007.45 1008.90 1011.19 1012.86 1014.00 1014.67
1015.93 1015.49 1014.80 1013.52 1013.22 1012.77 1011.69 1010.46 1009.54 1008.76 1008.36 1008.46 1007.95 1007.36 1006.64 1006.03 1006.01 1005.93 1005.94 1005.75 1005.99 1005.62 1005.07 1004.63 1004.60 1005.14 1005.77 1005.82 1005.38 1006.04 1006.01 1005.27 1004.30 1004.24 1004.09 1005.68 1005.23 1005.24 1006.66 1008.48 1009.86 1011.19 1012.67 1013.76 1014.36
1015.44 1014.16 1013.33 1013.51 1013.22 1012.65 1011.30 1010.04 1009.44 1010.04 1010.21 1009.55 1008.37 1007.43 1006.43 1006.58 1006.47 1006.04 1005.57 1005.12 1004.80 1005.48 1005.47 1004.51 1004.44 1004.82 1005.33 1005.29 1005.40 1005.22 1005.81 1005.65 1005.35 1005.00 1005.29 1004.60 1004.48 1006.45 1007.60 1008.87 1010.02 1011.16 1012.36 1013.23 1013.90
1015.60 1013.99 1013.63 1013.58 1013.21 1012.26 1011.06 1010.74 1010.89 1011.54 1011.40 1010.61 1009.34 1008.42 1007.27 1006.74 1006.70 1006.06 1005.21 1005.01 1004.93 1005.32 1005.38 1004.93 1004.69 1004.87 1005.36 1006.04 1006.06 1005.68 1005.36 1005.89 1005.89 1005.16 1004.72 1004.53 1004.12 1004.40 1006.49 1007.73 1009.16 1010.33 1011.50 1012.48 1013.32
1015.68 1013.46 1013.76 1013.46 1012.80 1011.53 1011.03 1011.92 1012.35 1012.47 1012.67 1011.76 1010.55 1009.76 1008.88 1008.21 1007.56 1006.67 1006.04 1005.87 1006.27 1006.13 1006.05 1005.69 1005.71 1004.93 1005.32 1005.44 1004.95 1005.56 1005.68 1005.85 1005.54 1004.82 1004.16 1003.77 1003.32 1003.36 1004.85 1006.45 1007.81 1009.07 1010.40 1011.61 1012.54
1015.89 1013.39 1014.26 1013.38 1012.26 1012.84 1012.82 1014.05 1014.55 1013.39 1013.35 1012.90 1012.29 1011.42 1010.62 1009.76 1008.80 1007.88 1007.20 1007.00 1007.81 1007.22 1006.66 1006.58 1006.07 1005.10 1004.70 1004.92 1005.55 1005.12 1004.47 1004.89 1005.05 1004.99 1005.01 1004.69 1003.85 1004.82 1005.40 1006.04 1007.09 1008.12 1009.50 1010.70 1011.68
1017.17 1015.70 1015.09 1013.81 1013.74 1014.43 1015.02 1014.93 1014.94 1014.83 1014.57 1014.19 1013.58 1013.39 1012.52 1011.58 1010.47 1009.00 1008.53 1008.68 1009.23 1008.52 1007.99 1007.56 1006.65 1005.89 1005.28 1005.34 1006.16 1005.62 1005.13 1005.23 1005.02 1005.18 1004.41 1004.20 1003.97 1005.45 1006.13 1006.47 1007.13 1007.72 1008.82 1009.99 1011.10
1018.15 1016.46 1016.12 1016.52 1017.55 1017.24 1016.90 1015.97 1015.88 1016.10 1015.89 1015.97 1015.42 1014.81 1014.20 1012.85 1012.04 1010.75 1010.13 1010.35 1010.78 1010.23 1010.31 1009.43 1007.63 1006.38 1005.10 1004.35 1004.28 1004.49 1004.95 1005.12 1005.31 1004.95 1004.27 1003.60 1003.82 1004.34 1005.67 1006.31 1006.90 1007.52 1008.33 1009.31 1010.52
1019.84 1020.10 1020.74 1018.30 1018.17 1018.97 1018.72 1018.22 1017.76 1017.43 1017.61 1017.24 1016.37 1016.81 1016.43 1014.95 1013.29 1012.53 1012.07 1012.44 1011.46 1011.28 1010.62 1010.24 1008.30 1007.59 1006.44 1006.02 1005.51 1005.06 1004.77 1004.96 1005.19 1004.69 1004.23 1003.46 1003.28 1003.73 1004.42 1005.78 1006.42 1007.20 1007.99 1008.88 1009.74
1021.89 1022.33 1021.46 1020.70 1020.78 1020.16 1019.95 1019.38 1019.85 1020.04 1020.14 1018.68 1018.81 1018.64 1018.49 1017.34 1016.21 1015.25 1014.91 1014.73 1013.12 1012.04 1012.00 1010.85 1009.24 1008.53 1006.99 1006.59 1006.43 1005.84 1005.34 1005.15 1004.71 1004.49 1004.17 1004.03 1003.33 1004.18 1004.49 1005.35 1005.94 1006.50 1007.51 1008.42 1009.07
1024.25 1023.96 1023.04 1022.06 1021.38 1021.02 1021.40 1021.86 1021.78 1021.66 1021.11 1020.86 1020.93 1020.51 1019.48 1018.62 1018.34 1018.06 1017.55 1016.78 1015.79 1014.85 1013.79 1012.63 1010.42 1009.37 1007.21 1007.71 1007.06 1005.54 1004.63 1004.80 1004.31 1004.16 1003.99 1003.29 1003.49 1003.87 1004.24 1005.24 1005.97 1006.44 1006.95 1007.76 1008.51
Thickness
5725 5730 5734 5738 5741 5744 5746 5747 5748 5750 5751 5753 5754 5755 5756 5757 5759 5766 5775 5789 5791 5788 5789 5793 5793 5795 5798 5796 5800 5804 5791 5796 5789 5793 5800 5822 5817 5835 5840 5835 5838 5843 5841 5837 5840
5724 5729 5734 5737 5741 5743 5745 5747 5748 5750 5751 5753 5754 5756 5757 5758 5768 5775 5789 5788 5787 5787 5790 5788 5785 5790 5789 5792 5795 5792 5790 5795 5799 5801 5802 5814 5814 5820 5824 5826 5829 5831 5834 5835 5833
5723 5728 5732 5736 5738 5741 5744 5745 5747 5749 5751 5752 5754 5755 5756 5758 5769 5787 5790 5787 5786 5788 5797 5797 5795 5790 5785 5793 5790 5792 5787 5789 5794 5801 5806 5808 5812 5821 5820 5818 5825 5824 5831 5829 5826
5721 5726 5730 5734 5737 5740 5743 5745 5747 5748 5750 5752 5753 5754 5755 5763 5767 5791 5787 5786 5784 5790 5793 5789 5787 5781 5782 5779 5791 5780 5786 5791 5797 5800 5801 5802 5811 5812 5818 5819 5829 5832 5834 5830 5824
5720 5725 5730 5734 5737 5740 5742 5744 5746 5747 5749 5750 5751 5752 5757 5767 5782 5791 5786 5783 5785 5790 5788 5787 5783 5786 5778 5785 5784 5782 5786 5790 5798 5800 5802 5805 5804 5808 5809 5816 5828 5832 5826 5823 5823
5718 5722 5728 5733 5736 5739 5741 5744 5746 5746 5747 5748 5749 5750 5761 5764 5790 5788 5787 5784 5788 5789 5788 5792 5789 5793 5784 5783 5781 5786 5786 5789 5796 5797 5800 5796 5799 5802 5803 5813 5818 5820 5822 5823 5820
5717 5721 5726 5731 5735 5738 5740 5742 5744 5745 5745 5746 5747 5752 5760 5773 5787 5785 5785 5786 5789 5789 5781 5789 5793 5785 5787 5774 5785 5783 5775 5787 5789 5795 5793 5800 5787 5784 5797 5808 5807 5810 5814 5820 5819
5717 5721 5726 5730 5733 5736 5739 5741 5743 5744 5743 5743 5743 5752 5763 5782 5783 5781 5782 5779 5784 5786 5788 5789 5789 5786 5785 5786 5779 5775 5779 5774 5788 5791 5793 5794 5776 5784 5794 5797 5798 5803 5808 5810 5814
5718 5722 5726 5729 5733 5735 5737 5738 5740 5740 5740 5740 5745 5751 5765 5774 5771 5780 5781 5773 5775 5777 5780 5782 5782 5777 5775 5771 5767 5772 5770 5771 5772 5791 5787 5788 5783 5781 5788 5788 5787 5793 5796 5798 5802
5718 5722 5726 5730 5733 5735 5736 5735 5736 5737 5738 5742 5748 5743 5767 5769 5775 5776 5779 5776 5767 5767 5763 5766 5770 5764 5772 5770 5761 5766 5766 5767 5770 5779 5782 5780 5780 5776 5777 5778 5776 5779 5780 5780 5779
5718 5723 5728 5731 5734 5735 5735 5739 5740 5740 5746 5759 5762 5761 5767 5774 5778 5770 5774 5768 5767 5761 5753 5762 5755 5755 5768 5773 5773 5770 5764 5762 5771 5776 5768 5776 5774 5768 5767 5768 5765 5764 5759 5762 5763
5719 5724 5729 5733 5736 5735 5738 5751 5746 5746 5743 5766 5764 5764 5768 5773 5760 5765 5775 5760 5755 5749 5762 5749 5748 5774 5769 5763 5760 5761 5757 5758 5767 5768 5762 5769 5763 5761 5761 5754 5751 5748 5745 5741 5741
5718 5724 5729 5733 5735 5735 5749 5744 5748 5749 5743 5758 5763 5762 5764 5765 5761 5761 5766 5764 5755 5752 5753 5753 5765 5769 5756 5751 5748 5754 5754 5756 5755 5761 5762 5758 5754 5751 5752 5750 5744 5736 5734 5731 5727
5716 5723 5728 5731 5730 5744 5742 5744 5747 5747 5733 5750 5754 5763 5764 5768 5751 5778 5773 5764 5754 5749 5755 5753 5767 5751 5749 5748 5750 5744 5758 5755 5749 5743 5741 5759 5738 5754 5756 5748 5740 5731 5728 5726 5723
5715 5720 5725 5728 5737 5739 5735 5740 5744 5739 5715 5753 5751 5772 5767 5758 5765 5759 5775 5760 5748 5747 5746 5750 5748 5741 5739 5747 5752 5745 5758 5748 5746 5739 5740 5747 5732 5760 5756 5745 5741 5729 5724 5720 5718
5711 5718 5720 5727 5731 5732 5734 5735 5733 5716 5708 5741 5750 5746 5742 5751 5756 5755 5752 5761 5762 5748 5747 5753 5759 5754 5753 5755 5751 5755 5740 5737 5737 5735 5718 5738 5739 5749 5751 5754 5744 5724 5719 5714 5712
5705 5711 5718 5719 5718 5725 5728 5728 5710 5706 5738 5725 5729 5739 5740 5739 5741 5745 5738 5733 5732 5715 5723 5737 5739 5748 5749 5736 5742 5734 5727 5712 5709 5712 5716 5741 5733 5745 5747 5749 5743 5723 5713 5708 5705
5703 5706 5709 5713 5714 5717 5722 5712 5686 5711 5714 5722 5721 5726 5722 5737 5735 5737 5732 5727 5738 5737 5731 5726 5719 5740 5747 5737 5733 5726 5728 5719 5704 5715 5735 5718 5708 5733 5746 5734 5726 5718 5708 5700 5696
5701 5707 5708 5706 5707 5710 5708 5691 5697 5694 5695 5695 5709 5707 5719 5721 5720 5722 5725 5728 5739 5734 5710 5719 5719 5741 5742 5743 5740 5728 5708 5734 5714 5724 5703 5726 5734 5722 5720 5713 5709 5703 5697 5692 5689
5692 5699 5697 5699 5701 5704 5696 5678 5685 5684 5683 5688 5683 5698 5696 5706 5703 5708 5719 5728 5726 5729 5734 5723 5701 5727 5726 5725 5723 5720 5733 5698 5703 5676 5672 5700 5714 5721 5704 5706 5702 5697 5690 5687 5684
5687 5693 5692 5694 5697 5696 5682 5672 5671 5675 5669 5669 5676 5676 5684 5684 5692 5696 5701 5710 5709 5709 5716 5714 5698 5710 5709 5704 5711 5705 5699 5700 5706 5710 5693 5691 5714 5740 5720 5710 5703 5699 5691 5683 5677
5675 5682 5679 5685 5680 5670 5663 5649 5644 5658 5660 5657 5660 5663 5664 5671 5671 5678 5681 5691 5686 5695 5688 5698 5691 5685 5695 5710 5706 5709 5711 5707 5680 5682 5690 5687 5696 5720 5712 5707 5703 5696 5687 5681 5675
5656 5659 5666 5672 5652 5646 5641 5638 5639 5637 5636 5637 5639 5640 5647 5647 5645 5667 5670 5672 5667 5672 5671 5678 5673 5662 5671 5684 5679 5678 5695 5695 5698 5691 5678 5677 5687 5700 5690 5690 5690 5687 5682 5676 5669
5643 5644 5646 5637 5621 5615 5614 5625 5620 5623 5620 5616 5616 5621 5619 5630 5638 5639 5646 5645 5643 5645 5637 5646 5658 5658 5658 5679 5694 5672 5671 5678 5676 5664 5676 5682 5690 5694 5678 5675 5678 5676 5675 5670 5660
5617 5604 5592 5613 5611 5596 5597 5599 5598 5597 5595 5596 5600 5588 5585 5593 5612 5615 5621 5613 5628 5625 5631 5628 5634 5647 5657 5661 5664 5663 5667 5662 5655 5668 5659 5681 5683 5692 5685 5673 5673 5669 5667 5659 5654
5593 5581 5584 5585 5577 5579 5576 5580 5567 5560 5555 5566 5558 5554 5553 5559 5570 5572 5576 5576 5590 5602 5601 5613 5617 5626 5633 5645 5640 5636 5648 5651 5657 5660 5660 5665 5668 5682 5684 5676 5671 5665 5659 5651 5648
5560 5557 5559 5551 5562 5560 5550 5537 5531 5530 5532 5529 5521 5520 5525 5532 5532 5534 5537 5541 5549 5553 5562 5572 5597 5601 5612 5619 5618 5620 5643 5643 5651 5657 5656 5649 5665 5674 5669 5660 5658 5658 5657 5650 5645